CZ-3B R/B (43040 NORAD) Tracking and Keplerian Element Data

This shows tracking and keplerian element data for the satellite.

Feedback or suggestion? Click here.




ElementValue
Catalog43040
NameCZ-3B R/B
Epoch Orbit56
Epoch Day7.97635937
Epoch Year2018
RAAN317.5506
Inclination26.0987
Eccentricity0.7510592
Argument of Perigee194.354
Mean Anonmoly122.5575
Mean Motion2.05105555
Decay Rate0.00141852
L11 43040U 17078B 18007.97635937 .00141852 -57858-7 64408-3 0 9996
L22 43040 26.0987 317.5506 7510592 194.3540 122.5575 2.05105555 563

Live tracking and technical data element details for CZ-3B R/B (NORAD 43040). CZ-3B R/B can be tracked NOW for your location showing map with azimuth and elevation plus other details from your city location.

Track the satellite on the map from your city or location and see movement details for azimuth, elevation, latitude, longitude, range, height, and movement on the map or in text.







IsCatalogInMostPopularTable: catalog: 43040, numindb: 138
Update: records affected: 1



GetName: 43040 CZ-3B R/B

Hit Count: updated at: Wed, 14 Nov 2018 11:28:16 GMT